Vorticity
16 -1 -9 26 -9 1 7 -10 10 11 11 2 2 21 -4 12 28 7 13 41 8 37
-21 -13 -4 3 -11 0 -15 12 9 9 -19 13 -2 9 6 5 -18 5 -2 -3 16 18
17 25 13 18 -1 12 11 3 9 -6 -2 1 -6 18 7 2 8 -3 -6 13 -17 45
16 9 5 6 -15 11 11 3 10 17 9 6 8 20 37 -11 -6 32 18 5 10 -5
2 26 44 52 46 54 13 4 9 6 4 -4 5 -13 -28 15 7 11 13 4 7 20
65 31 14 20 23 33 44 60 72 68 34 15 48 21 27 -12 8 7 16 7 9 10
2 18 16 23 16 21 22 25 20 17 28 21 23 31 27 35 24 -14 -12 -3 6 -1
11 7 5 16 20 -2 8 9 -15 19 12 15 14 22 14 13 30 41 29 -3 -23 -9
7 10 4 5 8 11 3 12 -8 33 25 13 11 8 9 10 17 13 22 31 36 33
4 3 5 14 8 15 6 -6 24 40 24 35 25 11 10 13 9 16 13 14 25 27
2 8 12 4 5 4 -0 12 2 31 28 20 25 27 20 3 13 18 28 17 21 30
4 8 3 8 0 0 3 4 -5 35 34 21 14 47 23 13 21 22 5 19 15 37
5 8 7 6 7 5 1 -3 -8 41 40 25 46 39 29 14 7 17 13 17 28 26
9 3 6 10 1 2 7 1 -3 44 33 15 27 31 20 6 16 10 24 29 16 9
Height
5607 5609 5611 5612 5612 5613 5615 5616 5614 5616 5616 5619 5622 5628 5633 5633 5635 5638 5639 5643 5650 5654
5588 5587 5589 5589 5589 5590 5592 5597 5597 5598 5599 5602 5602 5610 5615 5620 5617 5626 5630 5633 5640 5646
5569 5567 5567 5566 5567 5567 5569 5573 5578 5581 5582 5583 5586 5591 5595 5600 5608 5612 5617 5621 5627 5630
5545 5544 5543 5543 5543 5543 5545 5548 5553 5556 5555 5560 5565 5573 5576 5581 5587 5593 5599 5608 5611 5616
5520 5517 5515 5516 5514 5515 5519 5521 5525 5530 5531 5535 5540 5548 5555 5562 5570 5576 5582 5588 5596 5600
5498 5498 5498 5497 5496 5493 5492 5495 5499 5503 5508 5512 5513 5521 5529 5539 5546 5558 5564 5570 5578 5586
5490 5491 5490 5489 5487 5486 5485 5486 5488 5488 5490 5494 5496 5499 5507 5515 5525 5531 5541 5551 5561 5569
5483 5484 5484 5483 5482 5480 5479 5478 5477 5476 5476 5476 5480 5484 5490 5497 5503 5508 5517 5528 5541 5552
5477 5477 5477 5476 5475 5473 5471 5469 5465 5459 5457 5459 5461 5467 5472 5479 5485 5493 5497 5507 5518 5531
5471 5471 5470 5469 5467 5464 5461 5456 5450 5442 5439 5439 5444 5449 5455 5461 5468 5475 5482 5488 5497 5506
5465 5464 5462 5460 5458 5455 5451 5445 5438 5429 5424 5423 5425 5428 5435 5445 5452 5460 5467 5473 5480 5488
5457 5456 5454 5451 5449 5445 5440 5434 5425 5416 5410 5409 5409 5410 5419 5430 5439 5448 5455 5460 5465 5473
5449 5448 5445 5442 5438 5434 5429 5422 5414 5404 5399 5396 5394 5397 5408 5420 5429 5436 5443 5449 5454 5462
5442 5440 5437 5433 5429 5424 5419 5412 5406 5397 5392 5392 5392 5396 5404 5413 5420 5426 5432 5437 5443 5452